x

9439040 - Astoria, Or (asto3) Weather Station

11:18 - Wed 20th Sep 2017 All times are PDT. -7 hours from GMT.

  • Wind
    8mph, 10mph gusts
  • Sea Temp 66°f
  • Aire Temp 54°f
  • Sea Pressure 1010.4mb
  • 9439040 - Astoria, Or
  • 9439040 - Astoria, Or

More Historic Weather Station data

Upgrade to MSW Pro to gain access to the past 30 days of data for over 8000 Wavebouys and Weather Stations around the globe.

Join

Comparision Forecast

View Surf forecast
   
mié 09/20 11:18 8 10 mph 1010.4mb 66f 54f
11:12 7 10 mph 1010.4mb 66f 54f
11:06 8 13 mph 1010.3mb 66f 53f
11:00 8 13 mph 1010.2mb 66f 53f
10:54 9 13 mph 1010.1mb 66f 53f
10:48 7 11 mph 1010.2mb 66f 53f
10:42 7 10 mph 1010.3mb 66f 53f
10:36 6 9 mph 1010.3mb 66f 54f
10:30 6 8 mph 1010.3mb 66f 54f
10:24 6 8 mph 1010.2mb 66f 54f
10:18 6 8 mph 1010.2mb 66f 54f
10:12 5 7 mph 1010.3mb 66f 54f
10:06 5 7 mph 1010.3mb 66f 54f
10:00 3 6 mph 1010.3mb 66f 54f
9:54 5 7 mph 1010.3mb 66f 53f
9:48 5 7 mph 1010.3mb 66f 54f
9:42 3 6 mph 1010.3mb 66f 53f
9:36 3 5 mph 1010.3mb 66f 53f
9:30 3 6 mph 1010.3mb 65f 53f
9:24 5 7 mph 1010.3mb 66f 54f
9:18 3 6 mph 1010.3mb 66f 54f
9:12 5 6 mph 1010.3mb 66f 54f
9:06 3 5 mph 1010.3mb 66f 54f
9:00 3 5 mph 1010.3mb 66f 54f
8:54 2 3 mph 1010.2mb 66f 54f
8:48 2 5 mph 1010.1mb 65f 54f
8:42 2 3 mph 1010mb 65f 54f
8:36 2 3 mph 1010.1mb 65f 54f
8:30 2 5 mph 1010.1mb 65f 54f
8:24 3 7 mph 1010mb 65f 55f
8:18 6 7 mph 1010mb 65f 55f
8:12 6 8 mph 1009.9mb 65f 55f
8:06 7 9 mph 1009.8mb 65f 55f
8:00 7 9 mph 1009.8mb 65f 56f
7:54 7 9 mph 1009.8mb 65f 55f
7:48 8 10 mph 1009.7mb 64f 56f
7:42 8 10 mph 1009.6mb 64f 55f
7:36 8 9 mph 1009.6mb 64f 55f
7:30 6 8 mph 1009.6mb 64f 56f
7:24 6 9 mph 1009.6mb 64f 56f
7:18 7 10 mph 1009.5mb 64f 56f
7:12 7 11 mph 1009.5mb 64f 56f
7:06 8 11 mph 1009.4mb 64f 56f
7:00 9 10 mph 1009.4mb 64f 57f
6:54 8 13 mph 1009.4mb 64f 56f
6:48 8 13 mph 1009.3mb 64f 57f
6:42 9 14 mph 1009.2mb 64f 56f
6:36 9 13 mph 1009.2mb 64f 56f
6:30 11 13 mph 1009.2mb 64f 56f
6:24 10 14 mph 1009.2mb 64f 57f
6:18 13 15 mph 1009.1mb 64f 56f
6:12 10 14 mph 1009.1mb 64f 57f
6:06 10 14 mph 1009mb 64f 57f
6:00 10 15 mph 1008.9mb 64f 57f
5:54 13 15 mph 1008.8mb 65f 57f
5:48 13 15 mph 1008.8mb 65f 56f
5:42 10 15 mph 1008.8mb 64f 57f
5:36 13 16 mph 1008.7mb 64f 57f
5:30 13 16 mph 1008.7mb 63f 57f
5:24 13 16 mph 1008.6mb 63f 57f
5:18 13 16 mph 1008.5mb 63f 57f
5:12 14 15 mph 1008.6mb 63f 57f
5:06 11 14 mph 1008.5mb 63f 57f
5:00 13 16 mph 1008.4mb 63f 57f
4:54 14 16 mph 1008.4mb 63f 57f
4:48 14 17 mph 1008.4mb 63f 57f
4:42 13 15 mph 1008.4mb 64f 57f
4:36 13 16 mph 1008.2mb 64f 57f
4:30 13 15 mph 1008.2mb 64f 57f
4:24 11 15 mph 1008.1mb 65f 57f
4:18 13 14 mph 1008.1mb 65f 57f
4:12 11 15 mph 1008mb 65f 57f
4:06 10 15 mph 1008mb 65f 58f
4:00 14 15 mph 1008mb 65f 57f
3:54 13 15 mph 1007.9mb 65f 57f
3:48 11 14 mph 1007.8mb 65f 57f
3:42 14 17 mph 1007.7mb 64f 57f
3:36 11 14 mph 1007.7mb 64f 57f
3:30 11 14 mph 1007.7mb 64f 57f
3:24 11 14 mph 1007.7mb 64f 56f
3:18 11 14 mph 1007.6mb 64f 56f
3:12 10 13 mph 1007.6mb 64f 56f
3:06 9 13 mph 1007.6mb 64f 56f
3:00 9 10 mph 1007.5mb 64f 56f
2:54 9 10 mph 1007.4mb 64f 56f
2:48 8 10 mph 1007.4mb 64f 56f
2:42 8 10 mph 1007.4mb 64f 56f
2:36 7 11 mph 1007.3mb 64f 56f
2:30 8 9 mph 1007.3mb 64f 56f
2:24 6 8 mph 1007.2mb 64f 56f
2:18 3 6 mph 1007.1mb 64f 56f
2:12 6 8 mph 1007.1mb 64f 56f
2:06 5 6 mph 1007.1mb 64f 56f
2:00 5 6 mph 1007.1mb 65f 55f
1:54 6 8 mph 1007.2mb 65f 55f
1:48 6 8 mph 1007.2mb 65f 55f
1:42 3 5 mph 1007.2mb 65f 56f
1:36 1 3 mph 1007.1mb 65f 56f
1:30 1 2 mph 1007.1mb 65f 56f
1:24 2 5 mph 1007.1mb 65f 55f
1:18 2 6 mph 1007.1mb 65f 55f
1:12 5 6 mph 1006.9mb 65f 55f
1:06 3 5 mph 1006.9mb 65f 55f
1:00 2 5 mph 1006.8mb 65f 55f
12:54 5 6 mph 1006.8mb 65f 55f
12:48 3 6 mph 1006.8mb 65f 55f
12:42 3 7 mph 1006.7mb 66f 54f
12:36 5 6 mph 1006.5mb 66f 54f
12:30 2 5 mph 1006.5mb 66f 54f
12:24 3 7 mph 1006.4mb 66f 54f
12:18 5 7 mph 1006.4mb 65f 54f
12:12 5 6 mph 1006.3mb 65f 53f
12:06 3 6 mph 1006.2mb 65f 54f
12:00 3 6 mph 1006.1mb 65f 53f
11:54 5 8 mph 1006.1mb 65f 53f
11:48 7 11 mph 1006mb 65f 53f
11:42 6 8 mph 1005.9mb 65f 53f
11:36 3 6 mph 1005.8mb 65f 53f
11:30 6 8 mph 1005.7mb 65f 53f
11:24 3 6 mph 1005.6mb 65f 53f
11:18 6 8 mph 1005.5mb 65f 52f
11:12 3 7 mph 1005.5mb 65f 53f
11:06  -  5 mph 1005.4mb 65f 53f
11:00 1 5 mph 1005.3mb 65f 52f
10:54 5 7 mph 1005.3mb 65f 52f
10:48 3 6 mph 1005.2mb 65f 53f
10:42 2 3 mph 1005.2mb 65f 52f
10:36 3 3 mph 1005.1mb 65f 51f
10:30 2 3 mph 1005.1mb 65f 51f
10:24 2 3 mph 1005mb 65f 50f
10:18 3 5 mph 1005mb 65f 50f
10:12 3 5 mph 1005mb 65f 50f
10:06 3 6 mph 1004.9mb 65f 50f
10:00 3 5 mph 1004.9mb 65f 49f
9:54 3 5 mph 1004.8mb 65f 49f
9:48 3 5 mph 1004.8mb 65f 49f
9:42 2 5 mph 1004.6mb 65f 49f
9:36 3 6 mph 1004.6mb 65f 49f
9:30 3 8 mph 1004.5mb 65f 50f
9:24 2 11 mph 1004.4mb 65f 51f
9:18 8 14 mph 1004.2mb 65f 51f
9:12 10 14 mph 1004mb 65f 52f
9:06 14 16 mph 1003.9mb 65f 52f
9:00 13 15 mph 1003.8mb 65f 52f
8:54 11 15 mph 1003.8mb 65f 52f
8:48 11 14 mph 1003.7mb 65f 52f
8:42 7 10 mph 1003.7mb 65f 52f
8:36 6 14 mph 1003.7mb 65f 52f
8:30 5 7 mph 1003.6mb 65f 52f
8:24 1 5 mph 1003.6mb 64f 51f
8:18 6 6 mph 1003.6mb 64f 51f
8:12 5 7 mph 1003.5mb 64f 51f
8:06 2 6 mph 1003.4mb 64f 51f
8:00 5 6 mph 1003.4mb 64f 50f
7:54 3 5 mph 1003.3mb 64f 50f
7:48 2 3 mph 1003.2mb 64f 50f
7:42 2 3 mph 1003.1mb 64f 50f
7:36 2 3 mph 1003.2mb 64f 50f
7:30 2 3 mph 1003.2mb 64f 50f
7:24 1 2 mph 1003.2mb 64f 50f
7:18 2 2 mph 1003.1mb 64f 50f
7:12 1 3 mph 1003mb 64f 50f
7:06 1 5 mph 1002.9mb 64f 50f
7:00 1 5 mph 1002.9mb 64f 50f
6:54 3 5 mph 1002.9mb 64f 50f
6:48  -  3 mph 1002.9mb 64f 50f
6:42 3 6 mph 1002.9mb 64f 51f
6:36 5 6 mph 1002.9mb 63f 50f
6:30 3 5 mph 1002.8mb 63f 50f
6:24 3 3 mph 1002.8mb 64f 50f
6:18 3 6 mph 1002.7mb 64f 50f
6:12 1 2 mph 1002.7mb 64f 50f
6:06 2 2 mph 1002.4mb 64f 49f
6:00 1 2 mph 1002.4mb 64f 49f
5:54 2 3 mph 1002.3mb 64f 49f
5:48 2 3 mph 1002.4mb 64f 49f
5:42 3 3 mph 1002.3mb 64f 49f
5:36 2 3 mph 1002.3mb 64f 49f
5:30 2 2 mph 1002.3mb 64f 49f
5:24 1 2 mph 1002.5mb 64f 49f
5:18 1 1 mph 1002.4mb 64f 49f
5:12 1 2 mph 1002.3mb 64f 49f
5:06 2 3 mph 1002.3mb 64f 49f
5:00 3 3 mph 1002.3mb 64f 49f
4:54 2 3 mph 1002.3mb 64f 49f
4:48 1 2 mph 1002.4mb 64f 51f
4:42 2 5 mph 1002.4mb 64f 51f
4:36 3 6 mph 1002.3mb 64f 51f
4:30 5 6 mph 1002.2mb 64f 51f
4:24 1 3 mph 1002.1mb 64f 51f
4:18 1 3 mph 1002mb 64f 52f
4:12 3 9 mph 1002mb 64f 52f
4:06 6 10 mph 1002mb 64f 51f
4:00  -  2 mph 1002.1mb 65f 51f
3:54 2 7 mph 1002.2mb 65f 52f
3:48 6 9 mph 1002mb 64f 52f
3:42 3 6 mph 1002.1mb 64f 52f
3:36 1 5 mph 1002.1mb 64f 51f
3:30 2 3 mph 1002.1mb 65f 51f
3:24 1 5 mph 1002.4mb 65f 51f
3:18 1 3 mph 1002.5mb 64f 51f
3:12 3 6 mph 1002.8mb 64f 51f
3:06 2 3 mph 1003mb 64f 51f
3:00 2 5 mph 1003mb 64f 51f
2:54 1 3 mph 1003mb 64f 51f
2:48 1 5 mph 1002.9mb 64f 51f
2:42 1 6 mph 1002.9mb 64f 51f
2:36 1 3 mph 1003mb 64f 52f
2:30 2 5 mph 1003.1mb 64f 52f
2:24 2 5 mph 1003.2mb 64f 52f
2:18 2 3 mph 1003.2mb 64f 52f
2:12  -  3 mph 1003.2mb 64f 52f
2:06 1 3 mph 1003.2mb 64f 52f
2:00  -  3 mph 1003.2mb 64f 52f
1:54  -  3 mph 1003.2mb 64f 52f
1:48 1 3 mph 1003.3mb 64f 52f
1:42  -  3 mph 1003.3mb 64f 52f
1:36 1 3 mph 1003.4mb 64f 52f
1:30 2 5 mph 1003.5mb 64f 52f
1:24 3 5 mph 1003.6mb 65f 52f
1:18  -  5 mph 1003.8mb 65f 52f
1:12 2 5 mph 1003.9mb 65f 52f
1:06 3 6 mph 1004mb 65f 52f
1:00 5 7 mph 1004.2mb 65f 51f
12:54 3 7 mph 1004.3mb 65f 51f
12:48 5 7 mph 1004.4mb 65f 51f
12:42 5 6 mph 1004.6mb 65f 51f
12:36 5 6 mph 1004.8mb 65f 52f
12:30 5 8 mph 1004.7mb 65f 51f
12:24 6 8 mph 1005.1mb 65f 51f
12:18 3 6 mph 1005.2mb 65f 51f
12:12 6 9 mph 1005.3mb 66f 51f
12:06 5 7 mph 1005.4mb 66f 51f
12:00 6 9 mph 1005.5mb 66f 51f
mar 09/19 11:54 3 9 mph 1005.6mb 66f 52f
11:48 5 8 mph 1005.6mb 66f -
11:42 5 7 mph 1005.7mb 66f -
11:36 5 7 mph 1005.7mb 66f -
11:30 5 7 mph 1005.8mb 66f 52f
11:24 5 8 mph 1005.9mb 66f 52f
11:18 6 8 mph 1005.9mb 66f 52f
11:12 5 8 mph 1006mb 66f 52f
11:06 6 10 mph 1006.1mb 66f 53f
11:00 7 11 mph 1006.1mb 66f 53f
10:54 7 11 mph 1006.2mb 66f 52f
10:48 8 10 mph 1006.4mb - -
10:42 3 5 mph 1006.4mb - -
10:36 2 6 mph 1006.5mb - -
10:30 6 8 mph 1006.6mb 66f 52f
10:24 6 9 mph 1006.6mb 66f 52f
10:18 6 10 mph 1006.5mb 66f 52f
10:12 9 11 mph 1006.5mb 66f 52f
10:06 6 7 mph 1006.6mb 66f 52f
10:00 5 7 mph 1006.8mb 66f 53f
9:54 2 6 mph 1007.2mb 66f 54f
9:48 5 11 mph 1007.5mb 66f 55f
9:42 10 13 mph 1007.6mb 66f 54f
9:36 3 5 mph 1007.7mb 66f 54f
9:30 3 7 mph 1007.5mb 66f 54f
9:24 6 10 mph 1007.5mb 66f 54f
9:18 7 9 mph 1007.6mb 66f 54f
9:12 7 13 mph 1007.6mb 66f 54f
9:06 8 10 mph 1007.6mb 66f 54f
9:00 8 11 mph 1007.5mb 66f 54f
8:54 8 13 mph 1007.4mb 66f 55f
8:48 8 10 mph 1007.5mb 66f 55f
8:42 7 15 mph 1007.6mb 66f 55f
8:36 9 13 mph 1007.6mb 66f 55f
8:30 11 15 mph 1007.7mb 65f 55f
8:24 10 15 mph 1007.8mb 65f 55f
8:18 10 16 mph 1008mb 65f 55f
8:12 13 18 mph 1008.1mb 65f 56f
8:06 11 15 mph 1008.1mb 65f 56f
8:00 9 14 mph 1008.1mb 65f 57f
7:54 7 11 mph 1008.2mb 65f 57f
7:48 7 8 mph 1008.3mb 65f 57f
7:42 5 9 mph 1008.3mb 65f 57f
7:36 6 8 mph 1008.3mb 65f 56f
7:30 7 11 mph 1008.3mb 65f 56f
7:24 6 10 mph 1008.3mb 64f 56f
7:18 6 9 mph 1008.4mb 64f 57f
7:12 8 13 mph 1008.5mb 64f 57f
7:06 8 13 mph 1008.5mb 64f 57f
7:00 9 14 mph 1008.6mb 64f 57f
6:54 8 13 mph 1008.6mb 64f 57f
6:48 8 11 mph 1008.6mb 64f 57f
6:42 7 11 mph 1008.6mb 64f 58f
6:36 9 13 mph 1008.6mb 64f 58f
6:30 10 14 mph 1008.7mb 64f 58f
6:24 10 13 mph 1008.7mb 64f 58f
6:18 9 14 mph 1008.8mb 64f 58f
6:12 10 16 mph 1008.8mb 64f 58f
6:06 13 16 mph 1008.8mb 64f 59f
6:00 10 15 mph 1008.9mb 64f 59f
5:54 13 17 mph 1008.9mb 65f 59f
5:48 14 17 mph 1008.9mb 65f 59f
5:42 14 17 mph 1008.9mb 65f 60f
5:36 13 20 mph 1009mb 65f 59f
5:30 10 18 mph 1009mb 64f 60f
5:24 14 16 mph 1009.1mb 64f 59f
5:18 11 16 mph 1009.1mb 64f 59f
5:12 14 17 mph 1009.2mb 64f 59f
5:06 13 17 mph 1009.3mb 64f 59f
5:00 15 17 mph 1009.3mb 64f 59f
4:54 16 18 mph 1009.4mb 64f 60f
4:48 15 20 mph 1009.4mb 63f 60f
4:42 14 17 mph 1009.3mb 63f 60f
4:36 16 21 mph 1009.3mb 63f 60f
4:30 17 21 mph 1009.2mb 63f 60f
4:24 15 20 mph 1009.2mb 63f 60f
4:18 15 20 mph 1009.2mb 63f 60f
4:12 15 20 mph 1009.3mb 64f 60f
4:06 11 16 mph 1009.4mb 64f 60f
4:00 14 17 mph 1009.4mb 63f 60f
3:54 14 17 mph 1009.3mb 63f 60f
3:48 14 17 mph 1009.3mb 64f 60f
3:42 13 15 mph 1009.4mb 63f 60f
3:36 13 15 mph 1009.4mb 63f 60f
3:30 13 16 mph 1009.5mb 63f 60f
3:24 15 17 mph 1009.4mb 63f 60f
3:18 11 17 mph 1009.3mb 64f 60f
3:12 13 16 mph 1009.3mb 64f 60f
3:06 14 16 mph 1009.2mb 64f 60f
3:00 13 17 mph 1009.3mb 64f 60f
2:54 15 17 mph 1009.2mb 64f 59f
2:48 15 17 mph 1009.2mb 64f 59f
2:42 15 16 mph 1009.2mb 64f 59f
2:36 14 17 mph 1009.2mb 64f 59f
2:30 14 17 mph 1009.1mb 64f 59f
2:24 14 18 mph 1009.1mb 64f 59f
2:18 15 18 mph 1009.1mb 64f 60f
2:12 15 17 mph 1009.1mb 64f 59f
2:06 15 21 mph 1009mb 64f 59f
2:00 17 22 mph 1009mb 64f 59f
1:54 18 22 mph 1009.1mb 64f 59f
1:48 18 24 mph 1009.1mb 64f 59f
1:42 21 25 mph 1009.1mb 64f 59f
1:36 18 24 mph 1008.9mb 64f 59f
1:30 17 22 mph 1009mb 64f 59f
1:24 17 22 mph 1009mb 64f 59f
1:18 15 20 mph 1009.1mb 65f 60f
1:12 15 22 mph 1009.1mb 65f 60f
1:06 14 20 mph 1009.1mb 65f 60f
1:00 16 20 mph 1009mb 65f 60f
12:54 15 21 mph 1009.1mb 65f 60f
12:48 14 17 mph 1009.1mb 65f 60f
12:42 13 17 mph 1009mb 65f 60f
12:36 16 21 mph 1009mb 65f 60f
12:30 14 17 mph 1009mb 65f 59f
12:24 14 17 mph 1009mb 65f 60f
12:18 14 18 mph 1008.9mb 65f 60f
12:12 15 22 mph 1009mb 65f 59f
12:06 15 20 mph 1008.9mb 66f 59f
12:00 14 20 mph 1008.9mb 66f 59f
11:54 13 21 mph 1008.8mb 66f 59f
11:48 15 21 mph 1008.8mb 66f 59f
11:42 14 17 mph 1008.8mb 66f 59f
11:36 14 18 mph 1008.7mb 66f 58f
11:30 11 16 mph 1008.7mb 66f 58f
11:24 13 17 mph 1008.7mb 66f 58f
11:18 13 15 mph 1008.7mb 66f 58f
11:12 14 18 mph 1008.7mb 66f 58f
11:06 14 16 mph 1008.7mb 66f 58f
11:00 11 15 mph 1008.6mb 66f 58f
10:54 14 17 mph 1008.6mb 66f 58f
10:48 13 14 mph 1008.5mb 66f 58f
10:42 9 15 mph 1008.4mb 66f 58f
10:36 11 16 mph 1008.4mb 66f 58f
10:30 13 15 mph 1008.4mb 66f 58f
10:24 13 17 mph 1008.3mb 66f 58f
10:18 13 17 mph 1008.3mb 66f 58f
10:12 13 16 mph 1008.3mb 66f 57f
10:06 13 20 mph 1008.2mb 66f 57f
10:00 10 18 mph 1008.2mb 66f 57f
9:54 14 17 mph 1008.1mb 66f 57f
9:48 15 17 mph 1008mb 66f 57f
9:42 15 17 mph 1008mb 66f 57f
9:36 13 16 mph 1007.8mb 65f 57f
9:30 10 16 mph 1007.7mb 66f 56f
9:24 9 14 mph 1007.6mb 65f 56f
9:18 10 13 mph 1007.6mb 65f 56f
9:12 14 20 mph 1007.6mb 65f 56f
9:06 14 20 mph 1007.6mb 65f 57f
9:00 15 23 mph 1007.6mb 65f 56f
8:54 15 21 mph 1007.6mb 65f 58f
8:48 16 22 mph 1007.5mb 65f 58f
8:42 13 23 mph 1007.3mb 65f 57f
8:36 17 22 mph 1007.1mb 65f 57f
8:30 11 15 mph 1007mb 65f 56f
8:24 7 16 mph 1006.8mb 65f 55f
8:18 10 15 mph 1006.8mb 65f 54f
8:12 8 14 mph 1006.8mb 65f 54f
8:06 7 13 mph 1006.8mb 65f 55f
8:00 7 13 mph 1006.7mb 65f 55f
7:54 7 11 mph 1006.8mb 65f 54f
7:48 11 18 mph 1006.9mb 65f 55f
7:42 13 17 mph 1006.8mb 65f 55f
7:36 11 16 mph 1006.7mb 64f 54f
7:30 8 14 mph 1006.6mb 64f 54f
7:24 7 11 mph 1006.7mb 64f 54f
7:18 7 11 mph 1006.7mb 64f 54f
7:12 8 11 mph 1006.7mb 64f 54f
7:06 9 14 mph 1006.6mb 64f 55f
7:00 8 11 mph 1006.6mb 64f 55f
6:54 9 13 mph 1006.6mb 64f 55f
6:48 7 9 mph 1006.6mb 64f 55f
6:42 6 9 mph 1006.6mb 64f 55f
6:36 7 13 mph 1006.6mb 64f 56f
6:30 11 14 mph 1006.5mb 64f 56f
6:24 14 16 mph 1006.4mb 64f 56f
6:18 14 17 mph 1006.5mb 64f 56f
6:12 14 21 mph 1006.5mb 64f 57f
6:06 10 14 mph 1006.4mb 64f 56f
6:00 10 13 mph 1006.3mb 64f 56f
5:54 9 14 mph 1006.2mb 64f 56f
5:48 14 20 mph 1006.3mb 64f 57f
5:42 9 14 mph 1006.3mb 64f 55f
5:36 5 7 mph 1006.1mb 64f 54f
5:30 3 6 mph 1006.1mb 64f 54f
5:24 3 6 mph 1006.1mb 64f 53f
5:18 3 8 mph 1006mb 64f 53f
5:12 3 6 mph 1005.9mb 64f 52f
5:06 3 7 mph 1005.9mb 63f 52f
5:00 3 6 mph 1005.9mb 63f 53f
4:54 5 8 mph 1005.9mb 63f 54f
4:48 1 6 mph 1005.9mb 64f 55f
4:42 6 8 mph 1006mb 64f 55f
4:36 6 7 mph 1006.1mb 64f 55f
4:30 6 11 mph 1006.1mb 64f 55f
4:24 3 7 mph 1006.1mb 64f 55f
4:18 6 8 mph 1005.9mb 64f 54f
4:12 7 13 mph 1005.9mb 64f 54f
4:06 10 16 mph 1005.6mb 64f 53f
4:00 11 17 mph 1005.5mb 63f 53f
3:54 13 17 mph 1005.4mb 64f 53f
3:48 10 17 mph 1005.4mb 64f 53f
3:42 14 22 mph 1005.3mb 64f 53f
3:36 15 20 mph 1005.4mb 64f 53f
3:30 13 20 mph 1005.5mb 65f 53f
3:24 14 22 mph 1005.3mb 65f 53f
3:18 13 22 mph 1005.2mb 65f 53f
3:12 11 18 mph 1005.3mb 65f 53f
3:06 11 17 mph 1005.2mb 65f 53f
3:00 13 17 mph 1005.2mb 64f 53f
2:54 11 21 mph 1005.3mb 64f 54f
2:48 13 18 mph 1005.4mb 64f 54f
2:42 10 17 mph 1005.7mb 64f 54f
2:36 15 22 mph 1006mb 64f 55f
2:30 14 20 mph 1005.6mb 64f 55f
2:24 14 20 mph 1005.3mb 64f 54f
2:18 11 22 mph 1005.4mb 64f 54f
2:12 15 20 mph 1005.2mb 64f 54f
2:06 15 22 mph 1005.2mb 64f 54f
2:00 13 21 mph 1005.2mb 64f 54f
1:54 14 18 mph 1005.1mb 64f 54f
1:48 16 22 mph 1005.1mb 64f 54f
1:42 14 20 mph 1005.1mb 64f 53f
1:36 15 20 mph 1005mb 63f 53f
1:30 14 18 mph 1005.2mb 63f 53f
1:24 11 16 mph 1005.4mb 63f 53f
1:18 13 18 mph 1005.4mb 63f 53f
1:12 13 18 mph 1005.2mb 63f 53f
1:06 14 21 mph 1005.4mb 64f 53f
1:00 14 18 mph 1005.4mb 64f 53f
12:54 11 17 mph 1005.4mb 64f 53f
12:48 13 21 mph 1005.4mb 64f 53f
12:42 13 18 mph 1005.5mb 65f 53f
12:36 13 16 mph 1005.5mb 65f 52f
12:30 13 18 mph 1005.5mb 65f 52f
12:24 11 17 mph 1005.6mb 65f 52f
12:18 13 17 mph 1005.6mb 65f 52f
12:12 11 15 mph 1005.6mb 65f 51f
12:06 10 14 mph 1005.6mb 65f 52f
12:00 13 16 mph 1005.7mb 65f 52f
lun 09/18 11:54 14 20 mph 1005.7mb 65f 52f
11:48 14 17 mph 1005.6mb 65f -
11:42 11 14 mph 1005.7mb 65f -
11:36 11 16 mph 1005.6mb 66f -
11:30 11 15 mph 1005.5mb 66f 51f
11:24 13 17 mph 1005.5mb 66f 51f
11:18 10 14 mph 1005.6mb 66f 51f
11:12 9 11 mph 1005.6mb 66f 51f
11:06 10 15 mph 1005.6mb 66f 51f
11:00 13 17 mph 1005.7mb 66f 52f
10:54 14 17 mph 1005.7mb 66f 52f
10:48 13 17 mph 1005.7mb 66f 52f
10:42 13 17 mph 1005.8mb 66f 52f
10:36 15 18 mph 1005.9mb 66f 53f
10:30 13 18 mph 1005.8mb 66f 53f
10:24 13 21 mph 1005.9mb 66f 53f
10:18 11 21 mph 1006mb 66f 54f
10:12 10 13 mph 1006mb 66f 54f
10:06 11 18 mph 1006mb 66f 54f
10:00 8 16 mph 1005.9mb 66f 54f
9:54 10 14 mph 1005.9mb 66f 54f
9:48 11 20 mph 1005.7mb 66f 54f
9:42 11 18 mph 1005.7mb 66f 54f
9:36 15 20 mph 1005.8mb 66f 54f
9:30 14 20 mph 1005.9mb 67f 54f
9:24 13 16 mph 1006mb 67f 54f
9:18 13 17 mph 1006.1mb 67f 54f
9:12 13 16 mph 1006mb 67f 53f
9:06 11 18 mph 1006mb 66f 53f
9:00 14 20 mph 1006mb 66f 53f
8:54 14 17 mph 1006mb 66f 53f
8:48 13 18 mph 1006mb 66f 53f
8:42 14 21 mph 1005.9mb 66f 53f
8:36 14 20 mph 1005.9mb 66f 53f
8:30 14 18 mph 1005.9mb 66f 53f
8:24 14 22 mph 1005.9mb 66f 53f
8:18 9 17 mph 1005.9mb 66f 53f
8:12 8 20 mph 1006.1mb 66f 54f
8:06 15 21 mph 1006.1mb 66f 54f
8:00 15 21 mph 1006mb 66f 55f
7:54 10 21 mph 1006mb 66f 54f
7:48 10 15 mph 1006mb 66f 54f
7:42 13 16 mph 1006.1mb 66f 54f
7:36 11 18 mph 1006.1mb 66f 54f
7:30 11 16 mph 1006.1mb 66f 54f
7:24 11 15 mph 1006.2mb 65f 54f
7:18 11 16 mph 1006.3mb 65f 54f
7:12 11 16 mph 1006.4mb 65f 54f
7:06 11 16 mph 1006.4mb 65f 54f
7:00 11 18 mph 1006.5mb 65f 54f
6:54 11 16 mph 1006.6mb 65f 53f
6:48 13 16 mph 1006.7mb 65f 54f
6:42 11 15 mph 1006.6mb 65f 54f
6:36 13 18 mph 1006.7mb 65f 54f
6:30 10 17 mph 1006.7mb 65f 53f
6:24 13 16 mph 1006.7mb 65f 53f
6:18 11 17 mph 1006.7mb 64f 53f
6:12 11 18 mph 1006.8mb 64f 53f
6:06 10 20 mph 1006.8mb 64f 53f
6:00 10 20 mph 1006.9mb 64f 54f
5:54 13 21 mph 1007mb 64f 54f
5:48 15 20 mph 1007mb 65f 54f
5:42 13 20 mph 1006.9mb 65f 54f
5:36 16 24 mph 1006.9mb 64f 55f
5:30 11 18 mph 1006.9mb 65f 56f
5:24 11 18 mph 1006.8mb 65f 56f
5:18 11 17 mph 1006.9mb 65f 56f
5:12 14 20 mph 1006.9mb 65f 57f
5:06 11 17 mph 1006.8mb 65f 58f
5:00 14 20 mph 1006.6mb 64f 58f
4:54 10 14 mph 1006.9mb 64f 57f
4:48 9 14 mph - - -
4:42 9 16 mph - - -
4:36 7 10 mph - - -
4:30 7 11 mph 1007.2mb 64f 57f
4:24 5 9 mph 1007.4mb 64f 56f
4:18 7 9 mph 1007.6mb 65f 56f
4:12 5 7 mph 1007.6mb 65f 56f
4:06 6 7 mph 1007.6mb 65f 56f
4:00 6 11 mph 1007.5mb 65f 56f
3:54 7 10 mph 1007.7mb 65f 56f
3:48 7 10 mph 1007.9mb 65f 56f
3:42 7 10 mph 1007.8mb 65f 55f
3:36 7 16 mph 1008mb 65f 55f
3:30 13 20 mph 1008mb 65f 55f
3:24 14 17 mph 1007.9mb 65f 56f
3:18 10 16 mph 1008mb 65f 57f
3:12 8 14 mph 1008.1mb 65f 56f
3:06 10 16 mph 1008mb 65f 56f
3:00 10 16 mph 1008.1mb 65f 56f
2:54 11 17 mph 1008.1mb 65f 56f
2:48 13 21 mph 1008.1mb 65f 56f
2:42 14 20 mph 1008.2mb 65f 57f
2:36 13 21 mph 1008.3mb 65f 57f
2:30 17 23 mph 1008.4mb 65f 58f
2:24 16 21 mph 1008.5mb 65f 58f
2:18 14 21 mph 1008.6mb 65f 58f
2:12 14 17 mph 1008.6mb 65f 58f
2:06 14 18 mph 1008.6mb 65f 58f
2:00 14 17 mph 1008.7mb 65f 58f
1:54 7 15 mph 1008.8mb 65f 58f
1:48 15 21 mph 1008.8mb 65f 58f
1:42 13 16 mph 1008.8mb 65f 58f
1:36 10 17 mph 1008.8mb 65f 58f
1:30 9 14 mph 1008.9mb 65f 58f
1:24 11 16 mph 1008.9mb 65f 58f
1:18 9 11 mph 1009mb 65f 58f
1:12 9 13 mph 1009mb 65f 58f
1:06 6 9 mph 1009mb 65f 57f
1:00 6 9 mph 1009mb 65f 56f
12:54 7 10 mph 1009mb 66f 56f
12:48 6 10 mph 1009mb 66f 56f
12:42 7 10 mph 1009.1mb 66f 56f
12:36 8 11 mph 1009.1mb 66f 55f
12:30 7 13 mph 1009.1mb 66f 56f
12:24 9 14 mph 1009.1mb 66f 56f
12:18 10 14 mph 1009.2mb 66f 56f
12:12 9 15 mph 1009.2mb 66f 55f
12:06 7 13 mph 1009.3mb 66f 55f
12:00 6 8 mph 1009.3mb 66f 55f
11:54 7 7 mph 1009.4mb 66f 55f
11:48 5 7 mph 1009.4mb 66f 53f
11:42 8 11 mph 1009.6mb 66f 52f
11:36 9 16 mph 1009.4mb 66f 52f
11:30 10 14 mph 1009.5mb 66f 52f
11:24 10 14 mph 1009.4mb 67f 52f
11:18 11 14 mph 1009.5mb 67f 52f
11:12 9 14 mph 1009.6mb 67f 53f
11:06 10 15 mph 1009.6mb 67f 54f
11:00 13 16 mph 1009.7mb 67f 55f
10:54 14 17 mph 1009.6mb 67f 54f
10:48 13 21 mph 1009.7mb 67f 55f
10:42 10 18 mph 1009.5mb 67f 57f
10:36 8 10 mph 1009.1mb 67f 56f
10:30 10 11 mph 1009mb 67f 57f
10:24 7 10 mph 1009mb 67f 57f
10:18 5 10 mph 1009mb 67f 57f
10:12 9 10 mph 1009.1mb 67f 57f
10:06 7 11 mph 1009.1mb 67f 57f
10:00 11 15 mph 1009.1mb 67f 56f
9:54 10 13 mph 1009.1mb 67f 56f
9:48 9 15 mph 1009.1mb 67f 56f
9:42 10 15 mph 1009.1mb 67f 56f
9:36 13 17 mph 1009mb 67f 56f
9:30 13 16 mph 1008.9mb 67f 56f
9:24 11 15 mph 1008.9mb 67f 55f
9:18 10 14 mph 1008.8mb 67f 55f
9:12 11 16 mph 1008.8mb 67f 55f
9:06 14 17 mph 1008.9mb 67f 55f
9:00 11 16 mph 1008.9mb 67f 55f
8:54 9 13 mph 1009mb 67f 55f
8:48 11 16 mph 1008.9mb 67f 55f
8:42 9 16 mph 1008.9mb 66f 55f
8:36 10 15 mph 1008.9mb 66f 54f
8:30 8 13 mph 1008.9mb 66f 54f
8:24 9 13 mph 1008.8mb 66f 54f
8:18 9 11 mph 1008.8mb 66f 54f
8:12 8 14 mph 1008.8mb 66f 54f
8:06 8 13 mph 1008.8mb 66f 54f
8:00 8 11 mph 1008.8mb 66f 54f
7:54 7 8 mph 1008.8mb 66f 54f
7:48 6 8 mph 1008.8mb 66f 53f
7:42 6 11 mph 1008.8mb 66f 53f
7:36 7 10 mph 1008.7mb 65f 53f
7:30 6 9 mph 1008.7mb 65f 53f
7:24 7 10 mph 1008.8mb 65f 53f
7:18 7 9 mph 1008.8mb 65f 53f
7:12 7 10 mph 1008.7mb 65f 53f
7:06 7 10 mph 1008.7mb 65f 53f
7:00 8 14 mph 1008.7mb 65f 53f
6:54 9 13 mph 1008.6mb 65f 53f
6:48 9 10 mph 1008.6mb 65f 53f
6:42 8 11 mph 1008.6mb 65f 53f
6:36 9 11 mph 1008.6mb 65f 53f
6:30 9 11 mph 1008.7mb 65f 53f
6:24 6 9 mph 1008.7mb 65f 53f
6:18 2 6 mph 1008.7mb 65f 53f
6:12 3 6 mph 1008.7mb 65f 53f
6:06 6 8 mph 1008.6mb 65f 53f
6:00 6 13 mph 1008.6mb 65f 53f
5:54 8 13 mph 1008.6mb 65f 53f
5:48 8 11 mph 1008.7mb 65f 54f
5:42 5 8 mph 1008.7mb 65f 54f
5:36 7 10 mph 1008.7mb 65f 54f
5:30 7 10 mph 1008.7mb 65f 54f
5:24 7 9 mph 1008.7mb 65f 54f
5:18 7 8 mph 1008.7mb 65f 54f
5:12 3 6 mph 1008.7mb 65f 53f
5:06 3 5 mph 1008.7mb 65f 53f
5:00 5 6 mph 1008.8mb 65f 54f
4:54 3 6 mph 1008.9mb 65f 54f
4:48 3 5 mph 1008.9mb 65f 53f
4:42 2 3 mph 1008.9mb 65f 54f
4:36 2 3 mph 1008.9mb 65f 53f
4:30 2 3 mph 1008.9mb 65f 54f
4:24 3 5 mph 1008.8mb 65f 55f
4:18 3 6 mph 1008.9mb 65f 55f
4:12 2 6 mph 1008.9mb 65f 55f
4:06 3 14 mph 1009mb 65f 55f
4:00 10 18 mph 1009.1mb 65f 54f
3:54 10 16 mph 1009.3mb 65f 54f
3:48 6 11 mph 1008.9mb 65f 56f
3:42 8 10 mph 1008.9mb 65f 56f
3:36 6 8 mph 1008.8mb 65f 56f
3:30 6 9 mph 1008.9mb 65f 56f
3:24 6 10 mph 1009mb 65f 56f
3:18 6 8 mph 1009.1mb 65f 55f
3:12 5 6 mph 1009.1mb 65f 56f
3:06 3 7 mph 1009.2mb 65f 56f
3:00 7 10 mph 1009.3mb 65f 57f
2:54 6 10 mph 1009.4mb 65f 57f
2:48 5 7 mph 1009.4mb 65f 57f
2:42 5 7 mph 1009.5mb 65f 57f
2:36 3 7 mph 1009.5mb 65f 56f
2:30 5 7 mph 1009.5mb 66f 56f
2:24 5 7 mph 1009.6mb 66f 56f
2:18 3 6 mph 1009.6mb 66f 56f
2:12 3 5 mph 1009.6mb 66f 55f
2:06 2 3 mph 1009.6mb 66f 55f
2:00  -  3 mph 1009.6mb 66f 55f
1:54 2 5 mph 1009.6mb 66f 56f
1:48 1 6 mph 1009.6mb 66f 56f
1:42 3 6 mph 1009.7mb 66f 56f
1:36 1 5 mph 1009.7mb 66f 56f
1:30 3 6 mph 1009.7mb 66f 56f
1:24 1 2 mph 1009.7mb 66f 56f
1:18 1 6 mph 1009.7mb 66f 56f
1:12 5 6 mph 1009.6mb 66f 56f
1:06 3 6 mph 1009.6mb 66f 56f
1:00 5 7 mph 1009.6mb 66f 55f
12:54 6 9 mph 1009.6mb 65f 55f
12:48 5 6 mph 1009.5mb 65f 55f
12:42 3 6 mph 1009.6mb 65f 55f
12:36 5 6 mph 1009.6mb 65f 55f
12:30 5 9 mph 1009.7mb 65f 56f
12:24 6 8 mph 1009.8mb 65f 56f
12:18 6 10 mph 1009.8mb 65f 55f
12:12 6 8 mph 1009.8mb 65f 55f
12:06 6 8 mph 1009.8mb 65f 55f
12:00 3 9 mph 1009.8mb 65f 55f
dom 09/17 11:54 6 7 mph 1009.7mb 65f 55f
11:48 7 9 mph 1009.8mb - -
11:42 6 10 mph 1009.8mb - -
11:36 6 8 mph 1009.8mb - -
11:30 6 8 mph 1009.9mb 66f 55f
11:24 5 8 mph 1009.9mb 66f 55f
11:18 5 7 mph 1009.9mb 66f 55f
11:12 2 5 mph 1010mb 67f 55f
11:06  -  6 mph 1009.9mb 67f 55f
11:00 1 5 mph 1010mb 67f 55f
10:54 3 5 mph 1009.9mb 67f 55f
10:48 2 3 mph 1009.9mb 67f 55f
10:42 2 3 mph 1010mb 67f 55f
10:36 2 5 mph 1009.9mb 67f 55f
10:30 2 5 mph 1009.8mb 67f 55f
10:24 5 6 mph 1009.8mb 67f 55f
10:18 5 6 mph 1009.8mb 67f 55f
10:12 5 6 mph 1009.8mb 67f 55f
10:06 2 5 mph 1009.8mb 67f 55f
10:00 5 8 mph 1009.9mb 67f 55f
9:54 6 8 mph 1009.9mb 67f 55f
9:48 6 8 mph 1010.1mb 67f 56f
9:42 5 7 mph 1010.3mb 67f 56f
9:36 3 7 mph 1010.3mb 67f 56f
9:30 6 8 mph 1010.3mb 67f 56f
9:24 7 8 mph 1010.3mb 67f 56f
9:18 5 10 mph 1010.2mb 67f 56f
9:12 6 9 mph 1010.3mb 67f 58f
9:06 5 8 mph 1010.3mb 67f 57f
9:00 6 7 mph 1010.2mb 67f 58f
8:54 2 5 mph 1010.1mb 67f 58f
8:48 1 6 mph 1010mb 67f 58f
8:42 1 5 mph 1010mb 67f 58f
8:36 3 6 mph 1010mb 67f 58f
8:30 5 7 mph 1009.9mb 67f 58f
8:24 5 6 mph 1009.8mb 67f 58f
8:18 3 6 mph 1009.8mb 67f 58f
8:12 5 6 mph 1009.8mb 67f 58f
8:06 5 6 mph 1009.7mb 67f 58f
8:00 3 5 mph 1009.7mb 67f 58f
7:54 2 3 mph 1009.6mb 67f 58f
7:48 3 5 mph 1009.6mb 67f 58f
7:42 3 6 mph 1009.5mb 67f 58f
7:36 6 9 mph 1009.5mb 67f 58f
7:30 6 8 mph 1009.5mb 67f 58f
7:24 6 8 mph 1009.5mb 67f 58f
7:18 5 7 mph 1009.5mb 67f 57f
7:12 5 7 mph 1009.5mb 67f 57f
7:06 6 8 mph 1009.5mb 66f 57f
7:00 6 8 mph 1009.5mb 66f 57f
6:54 6 7 mph 1009.5mb 66f 58f
6:48 6 7 mph 1009.5mb 66f 58f
6:42 6 7 mph 1009.7mb 66f 58f
6:36 6 8 mph 1009.6mb 66f 58f
6:30 5 6 mph 1009.6mb 66f 58f
6:24 6 7 mph 1009.6mb 66f 58f
6:18 6 8 mph 1009.8mb 66f 58f
6:12 5 6 mph 1009.7mb 66f 58f
6:06 3 5 mph 1009.7mb 66f 58f
6:00 2 2 mph 1009.7mb 66f 58f
5:54 2 2 mph 1009.8mb 66f 58f
5:48 2 5 mph 1009.9mb 66f 59f
5:42 2 5 mph 1009.9mb 66f 59f
5:36 2 5 mph 1009.8mb 66f 59f
5:30 2 5 mph 1009.7mb 65f 59f
5:24 2 5 mph 1009.7mb 65f 59f
5:18 1 3 mph 1009.6mb 65f 59f
5:12 2 3 mph 1009.4mb 65f 59f
5:06 3 6 mph 1009.2mb 65f 58f
5:00 3 6 mph 1009.1mb 65f 58f
4:54 3 8 mph 1009.1mb 65f 58f
4:48 6 9 mph 1009.1mb 65f 58f
4:42 9 14 mph 1009.3mb 65f 58f
4:36 11 15 mph 1009.4mb 65f 58f
4:30 9 17 mph 1009.4mb 65f 59f
4:24 9 15 mph 1009.4mb 65f 59f
4:18 13 24 mph 1009.2mb 65f 59f
4:12 6 14 mph 1009.4mb 65f 59f
4:06 5 18 mph 1009.5mb 65f 59f
4:00 9 20 mph 1009.5mb 65f 60f
3:54 14 21 mph 1009.3mb 65f 59f
3:48 16 23 mph 1008.9mb 65f 59f
3:42 15 24 mph 1008.7mb 66f 59f
3:36 17 24 mph 1008.8mb 66f 59f
3:30 17 30 mph 1008.6mb 66f 59f
3:24 18 26 mph 1008.5mb 66f 59f
3:18 17 22 mph 1008.5mb 66f 59f
3:12 17 24 mph 1008.5mb 66f 59f
3:06 15 20 mph 1008.5mb 66f 59f
3:00 13 18 mph 1008.7mb 66f 59f
2:54 7 13 mph 1008.7mb 67f 59f
2:48 10 14 mph 1008.8mb 67f 59f
2:42 7 11 mph 1008.9mb 67f 58f
2:36 6 9 mph 1009mb 67f 58f
2:30 6 8 mph 1008.9mb 67f 58f
2:24 5 7 mph 1008.9mb 67f 58f
2:18 5 6 mph 1009.1mb 67f 58f
2:12 5 8 mph 1009.1mb 67f 58f
2:06 5 7 mph 1009.1mb 67f 58f
2:00 5 6 mph 1009.3mb 67f 58f
1:54 6 8 mph 1009.3mb 67f 58f
1:48 6 8 mph 1009.4mb 67f 58f
1:42 6 8 mph 1009.4mb 67f 58f
1:36 5 9 mph 1009.5mb 67f 58f
1:30 5 7 mph 1009.6mb 66f 58f
1:24 5 8 mph 1009.8mb 66f 58f
1:18 6 11 mph 1009.9mb 66f 58f
1:12 7 10 mph 1009.9mb 66f 58f
1:06 6 8 mph 1009.8mb 66f 59f
1:00 7 10 mph 1009.8mb 66f 59f
12:54 5 9 mph 1009.9mb 66f 59f
12:48 6 9 mph 1009.9mb 66f 59f
12:42 6 8 mph 1010mb 66f 59f
12:36 5 7 mph 1010mb 67f 59f
12:30 5 8 mph 1010.2mb 67f 59f
12:24 5 7 mph 1010.2mb 67f 59f
12:18 6 8 mph 1010.3mb 67f 59f
12:12 6 7 mph 1010.4mb 67f 59f
12:06 6 8 mph 1010.5mb 67f 59f
12:00 6 8 mph 1010.5mb 67f 59f
11:54 7 8 mph 1010.5mb 67f 59f
11:48 5 9 mph 1010.4mb 67f 59f
11:42 7 11 mph 1010.4mb 67f 59f
11:36 6 7 mph 1010.5mb 67f 60f
11:30 3 7 mph 1010.6mb 67f 60f
11:24 6 8 mph 1010.5mb 67f 60f
11:18 5 9 mph 1010.6mb 67f 60f
11:12 6 8 mph 1010.7mb 67f 60f
11:06 6 8 mph 1010.8mb 67f 61f
11:00 6 10 mph 1010.8mb 67f 61f
10:54 7 9 mph 1010.8mb 67f 61f
10:48 6 13 mph 1010.8mb 67f 61f
10:42 6 9 mph 1010.9mb 67f 61f
10:36 6 10 mph 1010.9mb 68f 61f
10:30 7 10 mph 1011mb 68f 61f
10:24 6 9 mph 1011.1mb 68f 61f
10:18 7 9 mph 1011.2mb 68f 61f
10:12 6 7 mph 1011.3mb 68f 60f
10:06 3 6 mph 1011.4mb 68f 60f
10:00 5 8 mph 1011.3mb 68f 60f
9:54 6 7 mph 1011.3mb 68f 59f
9:48 5 9 mph 1011.3mb 68f 59f
9:42 2 9 mph 1011.3mb 68f 59f
9:36 5 9 mph 1011.2mb 68f 59f
9:30 6 9 mph 1011.4mb 68f 58f
9:24 6 8 mph 1011.4mb 68f 58f
9:18 5 8 mph 1011.3mb 68f 58f
9:12 6 9 mph 1011.4mb 68f 58f
9:06 6 9 mph 1011.6mb 68f 58f
9:00 6 9 mph 1011.7mb 68f 58f
8:54 6 8 mph 1011.6mb 68f 58f
8:48 6 7 mph 1011.7mb 68f 58f
8:42 6 8 mph 1011.6mb 68f 58f
8:36 6 8 mph 1011.6mb 68f 58f
8:30 6 8 mph 1011.4mb 68f 58f
8:24 6 8 mph 1011.5mb 68f 57f
8:18 7 9 mph 1011.7mb 67f 57f
8:12 6 7 mph 1011.8mb 67f 57f
8:06 5 8 mph 1011.7mb 67f 57f
8:00 7 8 mph 1011.8mb 67f 57f
7:54 7 9 mph 1011.8mb 67f 57f
7:48 8 10 mph 1011.9mb 67f 57f
7:42 7 10 mph 1011.9mb 67f 57f
7:36 6 8 mph 1011.8mb 67f 57f
7:30 6 8 mph 1011.7mb 67f 56f
7:24 6 7 mph 1011.7mb 67f 56f
7:18 6 9 mph 1011.7mb 67f 56f
7:12 8 11 mph 1011.9mb 67f 56f
7:06 8 13 mph 1011.9mb 67f 56f